Location: ?????
(31.8092°N, 35.2590°E)
Time: 20:12:47
(UTC+00:00)

Resurs 01 Rocket - Pass Details

Date: 20 June 2021
Orbit: 635 x 643 km, 97.9° (Epoch: 02 August)

Event Time Altitude Azimuth Distance (km) Brightness Sun altitude
Exits shadow 19:22:11 15° 236° (WSW) 1,681 3.8 -25.6°
Maximum altitude 19:23:52 19° 265° (W) 1,521 3.8 -25.8°
Drops below altitude 10° 19:26:58 10° 310° (NW) 2,022 5.1 -26.2°
Sets 19:29:46 0° 328° (NNW) 2,935 6.4 -26.5°
